QPF
0.02 0.01 0.02 0.02 0.02 0.02 0.03 0.03 0.02 0.01 0.01 0.01 0.00 0.00 0.00 0.00 0.00 0.00 0.00 0.01 0.01 0.02 0.03 0.03 0.02 0.02 0.03 0.02 0.02 0.01 0.01 0.01 0.01 0.01 0.01 0.02 0.03 0.04 0.04 0.03 0.02 0.02 0.01
0.02 0.02 0.02 0.02 0.02 0.02 0.03 0.03 0.02 0.01 0.01 0.01 0.00 0.00 0.00 0.00 0.00 0.00 0.00 0.01 0.01 0.01 0.02 0.03 0.03 0.03 0.03 0.03 0.02 0.02 0.02 0.02 0.02 0.02 0.02 0.03 0.04 0.05 0.05 0.04 0.02 0.02 0.01
0.04 0.03 0.03 0.02 0.02 0.02 0.03 0.03 0.02 0.01 0.01 0.01 0.01 0.00 0.00 0.00 0.00 0.00 0.00 0.01 0.01 0.00 0.01 0.02 0.02 0.03 0.04 0.02 0.02 0.01 0.02 0.02 0.02 0.02 0.01 0.02 0.05 0.05 0.05 0.05 0.03 0.02 0.02
0.04 0.05 0.05 0.04 0.03 0.03 0.03 0.02 0.02 0.02 0.01 0.01 0.01 0.01 0.00 0.00 0.00 0.01 0.01 0.01 0.00 0.00 0.00 0.01 0.01 0.03 0.04 0.02 0.02 0.02 0.01 0.02 0.01 0.01 0.01 0.01 0.02 0.04 0.04 0.04 0.03 0.02 0.02
0.03 0.04 0.05 0.04 0.04 0.03 0.04 0.03 0.02 0.02 0.01 0.01 0.01 0.01 0.01 0.00 0.00 0.00 0.01 0.01 0.00 0.00 0.00 0.00 0.01 0.02 0.03 0.02 0.02 0.01 0.01 0.01 0.01 0.01 0.01 0.01 0.01 0.01 0.03 0.03 0.02 0.02 0.01
0.02 0.02 0.03 0.05 0.05 0.04 0.04 0.04 0.03 0.02 0.02 0.01 0.01 0.01 0.01 0.01 0.01 0.01 0.01 0.00 0.00 0.00 0.00 0.00 0.01 0.01 0.02 0.01 0.02 0.01 0.01 0.00 0.01 0.01 0.01 0.01 0.01 0.01 0.01 0.03 0.03 0.02 0.01
0.02 0.02 0.02 0.03 0.06 0.05 0.04 0.05 0.05 0.03 0.02 0.02 0.01 0.01 0.01 0.01 0.01 0.01 0.01 0.01 0.00 0.00 0.01 0.01 0.01 0.01 0.01 0.01 0.01 0.01 0.01 0.00 0.00 0.01 0.02 0.01 0.02 0.01 0.02 0.02 0.03 0.02 0.02
0.03 0.03 0.03 0.03 0.04 0.06 0.05 0.04 0.06 0.05 0.03 0.02 0.02 0.02 0.02 0.02 0.02 0.02 0.02 0.01 0.01 0.00 0.01 0.01 0.01 0.01 0.01 0.01 0.01 0.01 0.01 0.01 0.00 0.01 0.01 0.01 0.01 0.02 0.02 0.03 0.03 0.03 0.02
0.02 0.02 0.02 0.03 0.03 0.05 0.06 0.05 0.05 0.06 0.05 0.03 0.02 0.01 0.01 0.02 0.02 0.02 0.02 0.02 0.01 0.01 0.01 0.01 0.01 0.01 0.01 0.01 0.01 0.01 0.01 0.01 0.00 0.00 0.01 0.01 0.01 0.02 0.02 0.03 0.04 0.04 0.04
0.02 0.02 0.01 0.01 0.03 0.04 0.05 0.05 0.05 0.05 0.05 0.04 0.03 0.01 0.01 0.01 0.02 0.02 0.02 0.02 0.02 0.02 0.01 0.01 0.01 0.01 0.01 0.01 0.01 0.01 0.00 0.01 0.01 0.01 0.01 0.01 0.01 0.02 0.02 0.03 0.04 0.05 0.05
0.03 0.03 0.03 0.02 0.02 0.03 0.03 0.04 0.05 0.05 0.05 0.05 0.04 0.02 0.01 0.01 0.01 0.02 0.02 0.02 0.03 0.02 0.02 0.02 0.01 0.01 0.01 0.01 0.01 0.01 0.01 0.01 0.01 0.01 0.01 0.01 0.02 0.02 0.02 0.03 0.04 0.05 0.05
0.03 0.03 0.03 0.02 0.02 0.03 0.03 0.02 0.03 0.04 0.05 0.05 0.04 0.03 0.02 0.01 0.01 0.01 0.01 0.02 0.02 0.02 0.02 0.02 0.02 0.02 0.01 0.01 0.01 0.01 0.01 0.01 0.01 0.01 0.01 0.01 0.02 0.02 0.02 0.02 0.03 0.05 0.06
0.03 0.03 0.03 0.02 0.02 0.04 0.04 0.03 0.02 0.03 0.04 0.05 0.05 0.04 0.03 0.02 0.01 0.01 0.01 0.01 0.02 0.02 0.02 0.02 0.02 0.02 0.02 0.01 0.02 0.02 0.02 0.01 0.01 0.01 0.01 0.02 0.01 0.01 0.01 0.02 0.02 0.03 0.06
0.02 0.03 0.03 0.03 0.03 0.04 0.05 0.04 0.03 0.03 0.03 0.04 0.05 0.05 0.04 0.03 0.02 0.01 0.01 0.02 0.02 0.02 0.02 0.03 0.03 0.03 0.03 0.02 0.03 0.03 0.02 0.02 0.02 0.01 0.01 0.02 0.02 0.01 0.01 0.02 0.03 0.02 0.04
0.01 0.02 0.04 0.04 0.04 0.05 0.06 0.05 0.05 0.04 0.04 0.03 0.04 0.05 0.06 0.05 0.03 0.02 0.02 0.02 0.03 0.02 0.02 0.03 0.04 0.05 0.04 0.03 0.03 0.03 0.03 0.03 0.02 0.02 0.01 0.01 0.01 0.01 0.01 0.02 0.02 0.02 0.03
0.01 0.01 0.03 0.03 0.04 0.06 0.07 0.06 0.06 0.05 0.05 0.04 0.03 0.05 0.07 0.07 0.06 0.04 0.03 0.02 0.03 0.03 0.02 0.02 0.04 0.04 0.04 0.03 0.03 0.03 0.03 0.03 0.02 0.01 0.01 0.01 0.01 0.01 0.01 0.01 0.01 0.02 0.02
0.02 0.02 0.02 0.02 0.03 0.05 0.07 0.07 0.06 0.05 0.05 0.04 0.04 0.04 0.05 0.06 0.06 0.05 0.04 0.03 0.02 0.02 0.03 0.03 0.03 0.04 0.03 0.03 0.03 0.03 0.02 0.02 0.02 0.02 0.01 0.01 0.01 0.01 0.01 0.01 0.01 0.01 0.02
0.02 0.02 0.02 0.02 0.02 0.03 0.05 0.06 0.06 0.06 0.05 0.05 0.04 0.04 0.04 0.05 0.06 0.06 0.06 0.05 0.03 0.02 0.03 0.03 0.03 0.03 0.03 0.03 0.02 0.02 0.02 0.02 0.02 0.02 0.01 0.01 0.01 0.01 0.01 0.01 0.01 0.01 0.02
0.03 0.02 0.02 0.03 0.02 0.03 0.03 0.04 0.05 0.06 0.06 0.05 0.05 0.05 0.04 0.04 0.06 0.06 0.06 0.05 0.05 0.04 0.03 0.03 0.03 0.03 0.03 0.03 0.03 0.03 0.02 0.02 0.02 0.02 0.02 0.01 0.01 0.01 0.01 0.01 0.01 0.01 0.01
0.04 0.03 0.03 0.03 0.04 0.04 0.03 0.04 0.05 0.05 0.05 0.05 0.05 0.05 0.05 0.06 0.06 0.06 0.06 0.05 0.05 0.05 0.04 0.04 0.03 0.02 0.03 0.03 0.03 0.03 0.03 0.03 0.03 0.02 0.02 0.02 0.02 0.01 0.01 0.01 0.01 0.01 0.01
0.04 0.03 0.03 0.03 0.04 0.04 0.04 0.04 0.05 0.06 0.05 0.04 0.05 0.05 0.05 0.06 0.06 0.07 0.07 0.06 0.06 0.06 0.06 0.05 0.04 0.03 0.02 0.03 0.04 0.04 0.03 0.03 0.03 0.03 0.02 0.02 0.01 0.01 0.01 0.01 0.01 0.01 0.01
0.03 0.03 0.03 0.03 0.04 0.05 0.04 0.04 0.05 0.06 0.06 0.06 0.05 0.04 0.04 0.05 0.05 0.06 0.07 0.08 0.08 0.08 0.08 0.07 0.06 0.05 0.03 0.03 0.04 0.04 0.04 0.04 0.04 0.04 0.04 0.03 0.02 0.02 0.01 0.01 0.01 0.01 0.01
0.04 0.04 0.04 0.04 0.04 0.05 0.04 0.03 0.03 0.04 0.05 0.06 0.05 0.04 0.04 0.04 0.04 0.05 0.05 0.06 0.07 0.08 0.08 0.07 0.07 0.05 0.04 0.04 0.04 0.04 0.04 0.04 0.04 0.05 0.06 0.05 0.03 0.02 0.01 0.01 0.02 0.01 0.01
0.04 0.05 0.06 0.05 0.05 0.05 0.04 0.03 0.03 0.03 0.03 0.04 0.04 0.03 0.03 0.03 0.03 0.03 0.04 0.04 0.05 0.06 0.07 0.07 0.07 0.06 0.05 0.05 0.05 0.05 0.05 0.05 0.04 0.04 0.05 0.05 0.04 0.02 0.02 0.01 0.01 0.01 0.01
0.04 0.05 0.07 0.06 0.06 0.05 0.04 0.04 0.03 0.02 0.02 0.03 0.03 0.03 0.02 0.02 0.02 0.02 0.03 0.03 0.04 0.04 0.04 0.05 0.06 0.06 0.06 0.06 0.06 0.07 0.07 0.06 0.05 0.04 0.04 0.04 0.04 0.03 0.02 0.01 0.01 0.01 0.01
0.04 0.04 0.06 0.06 0.06 0.05 0.05 0.04 0.03 0.02 0.02 0.02 0.02 0.02 0.02 0.02 0.02 0.02 0.02 0.03 0.03 0.03 0.03 0.03 0.04 0.05 0.05 0.06 0.06 0.07 0.07 0.07 0.05 0.04 0.04 0.04 0.04 0.04 0.03 0.03 0.02 0.01 0.01
MSLP
1027.86 1027.79 1027.71 1027.60 1027.45 1027.26 1027.01 1026.71 1026.36 1025.99 1025.61 1025.23 1024.90 1024.61 1024.39 1024.24 1024.17 1024.15 1024.15 1024.15 1024.09 1023.96 1023.75 1023.45 1023.09 1022.70 1022.32 1021.97 1021.69 1021.48 1021.32 1021.19 1021.08 1020.95 1020.81 1020.66 1020.52 1020.43 1020.40 1020.46 1020.61 1020.83 1021.11
1028.09 1028.04 1027.98 1027.89 1027.77 1027.60 1027.36 1027.06 1026.70 1026.31 1025.90 1025.50 1025.14 1024.84 1024.61 1024.48 1024.43 1024.44 1024.48 1024.52 1024.50 1024.41 1024.23 1023.95 1023.60 1023.22 1022.83 1022.48 1022.18 1021.93 1021.73 1021.55 1021.38 1021.19 1020.98 1020.76 1020.55 1020.38 1020.28 1020.27 1020.36 1020.53 1020.77
1028.36 1028.33 1028.29 1028.22 1028.11 1027.94 1027.70 1027.39 1027.02 1026.61 1026.17 1025.75 1025.36 1025.05 1024.82 1024.69 1024.65 1024.68 1024.76 1024.82 1024.85 1024.79 1024.65 1024.41 1024.10 1023.74 1023.37 1023.02 1022.70 1022.43 1022.19 1021.96 1021.73 1021.48 1021.20 1020.91 1020.62 1020.38 1020.19 1020.10 1020.11 1020.20 1020.38
1028.65 1028.64 1028.62 1028.56 1028.45 1028.27 1028.02 1027.69 1027.31 1026.87 1026.42 1025.97 1025.57 1025.24 1025.00 1024.86 1024.82 1024.87 1024.95 1025.04 1025.09 1025.08 1024.98 1024.80 1024.53 1024.22 1023.88 1023.54 1023.23 1022.94 1022.67 1022.40 1022.11 1021.79 1021.45 1021.09 1020.73 1020.40 1020.14 1019.96 1019.87 1019.88 1019.98
1028.91 1028.94 1028.93 1028.88 1028.76 1028.57 1028.30 1027.96 1027.55 1027.10 1026.63 1026.17 1025.76 1025.41 1025.16 1025.01 1024.96 1025.00 1025.08 1025.18 1025.25 1025.27 1025.22 1025.08 1024.88 1024.61 1024.32 1024.02 1023.72 1023.42 1023.12 1022.81 1022.48 1022.11 1021.71 1021.28 1020.86 1020.46 1020.11 1019.84 1019.67 1019.58 1019.59
1029.07 1029.15 1029.17 1029.12 1029.01 1028.81 1028.53 1028.18 1027.76 1027.31 1026.84 1026.38 1025.96 1025.61 1025.35 1025.18 1025.11 1025.12 1025.18 1025.27 1025.34 1025.38 1025.36 1025.28 1025.12 1024.92 1024.68 1024.41 1024.12 1023.83 1023.52 1023.18 1022.80 1022.39 1021.94 1021.47 1021.00 1020.54 1020.13 1019.78 1019.52 1019.34 1019.25
1029.10 1029.22 1029.27 1029.25 1029.15 1028.97 1028.70 1028.35 1027.95 1027.51 1027.06 1026.62 1026.22 1025.87 1025.60 1025.42 1025.32 1025.29 1025.32 1025.37 1025.43 1025.46 1025.46 1025.40 1025.29 1025.13 1024.93 1024.70 1024.44 1024.15 1023.83 1023.47 1023.07 1022.63 1022.15 1021.64 1021.14 1020.64 1020.18 1019.77 1019.43 1019.16 1018.98
1028.95 1029.12 1029.22 1029.25 1029.19 1029.03 1028.80 1028.49 1028.14 1027.74 1027.33 1026.93 1026.56 1026.24 1025.98 1025.78 1025.65 1025.58 1025.56 1025.56 1025.57 1025.58 1025.56 1025.50 1025.41 1025.27 1025.10 1024.89 1024.64 1024.36 1024.04 1023.67 1023.26 1022.80 1022.31 1021.80 1021.27 1020.75 1020.26 1019.81 1019.41 1019.06 1018.79
1028.62 1028.85 1029.02 1029.10 1029.10 1029.02 1028.85 1028.61 1028.32 1028.00 1027.67 1027.34 1027.02 1026.74 1026.50 1026.30 1026.15 1026.03 1025.95 1025.88 1025.83 1025.78 1025.71 1025.63 1025.52 1025.38 1025.21 1025.00 1024.76 1024.48 1024.16 1023.79 1023.37 1022.92 1022.43 1021.91 1021.39 1020.86 1020.36 1019.88 1019.43 1019.03 1018.67
1028.15 1028.44 1028.68 1028.84 1028.93 1028.93 1028.85 1028.71 1028.52 1028.29 1028.05 1027.81 1027.57 1027.35 1027.14 1026.96 1026.79 1026.64 1026.49 1026.36 1026.23 1026.09 1025.96 1025.81 1025.65 1025.48 1025.28 1025.06 1024.81 1024.52 1024.20 1023.83 1023.41 1022.96 1022.48 1021.98 1021.47 1020.95 1020.44 1019.95 1019.47 1019.02 1018.60
1027.60 1027.96 1028.26 1028.51 1028.69 1028.79 1028.81 1028.78 1028.69 1028.57 1028.44 1028.29 1028.14 1027.99 1027.84 1027.68 1027.52 1027.34 1027.15 1026.95 1026.74 1026.51 1026.29 1026.06 1025.82 1025.58 1025.34 1025.08 1024.80 1024.50 1024.16 1023.79 1023.39 1022.95 1022.48 1022.00 1021.50 1020.99 1020.49 1019.98 1019.48 1018.99 1018.52
1027.04 1027.44 1027.81 1028.14 1028.41 1028.60 1028.72 1028.79 1028.80 1028.79 1028.75 1028.70 1028.64 1028.58 1028.49 1028.38 1028.24 1028.06 1027.84 1027.58 1027.30 1026.99 1026.67 1026.34 1026.02 1025.70 1025.38 1025.07 1024.75 1024.41 1024.06 1023.69 1023.29 1022.86 1022.40 1021.93 1021.45 1020.95 1020.45 1019.94 1019.43 1018.91 1018.40
1026.48 1026.93 1027.36 1027.76 1028.09 1028.36 1028.57 1028.71 1028.81 1028.87 1028.92 1028.96 1028.98 1028.99 1028.98 1028.93 1028.83 1028.67 1028.44 1028.16 1027.82 1027.44 1027.04 1026.62 1026.20 1025.80 1025.40 1025.02 1024.65 1024.28 1023.90 1023.52 1023.11 1022.68 1022.23 1021.77 1021.29 1020.79 1020.29 1019.78 1019.26 1018.73 1018.19
1025.95 1026.43 1026.91 1027.35 1027.74 1028.06 1028.32 1028.51 1028.66 1028.78 1028.88 1028.98 1029.08 1029.16 1029.22 1029.23 1029.19 1029.07 1028.87 1028.58 1028.23 1027.80 1027.34 1026.85 1026.35 1025.86 1025.39 1024.94 1024.51 1024.09 1023.68 1023.27 1022.85 1022.41 1021.96 1021.49 1021.00 1020.50 1019.99 1019.47 1018.95 1018.41 1017.87
1025.42 1025.93 1026.44 1026.91 1027.33 1027.68 1027.96 1028.18 1028.35 1028.49 1028.62 1028.76 1028.90 1029.04 1029.16 1029.25 1029.27 1029.21 1029.05 1028.80 1028.44 1028.01 1027.51 1026.96 1026.40 1025.85 1025.31 1024.80 1024.31 1023.85 1023.40 1022.96 1022.51 1022.05 1021.57 1021.08 1020.57 1020.06 1019.53 1019.01 1018.48 1017.95 1017.42
1024.83 1025.38 1025.92 1026.41 1026.85 1027.21 1027.49 1027.70 1027.87 1028.02 1028.16 1028.31 1028.48 1028.66 1028.84 1028.98 1029.07 1029.07 1028.97 1028.76 1028.44 1028.02 1027.51 1026.95 1026.35 1025.75 1025.16 1024.60 1024.06 1023.55 1023.06 1022.58 1022.10 1021.60 1021.09 1020.56 1020.02 1019.48 1018.93 1018.39 1017.87 1017.34 1016.83
1024.15 1024.74 1025.31 1025.83 1026.28 1026.64 1026.92 1027.12 1027.28 1027.41 1027.55 1027.70 1027.88 1028.09 1028.30 1028.49 1028.63 1028.69 1028.65 1028.50 1028.22 1027.83 1027.34 1026.78 1026.17 1025.55 1024.93 1024.34 1023.76 1023.22 1022.68 1022.16 1021.63 1021.09 1020.53 1019.95 1019.37 1018.78 1018.21 1017.65 1017.12 1016.60 1016.10
1023.35 1023.99 1024.60 1025.15 1025.61 1025.99 1026.27 1026.48 1026.63 1026.75 1026.88 1027.03 1027.22 1027.43 1027.66 1027.88 1028.06 1028.16 1028.17 1028.06 1027.83 1027.47 1027.02 1026.48 1025.89 1025.27 1024.65 1024.04 1023.44 1022.86 1022.29 1021.73 1021.15 1020.55 1019.93 1019.30 1018.66 1018.02 1017.41 1016.82 1016.27 1015.76 1015.27
1022.42 1023.12 1023.78 1024.37 1024.87 1025.27 1025.58 1025.80 1025.96 1026.10 1026.23 1026.38 1026.56 1026.77 1027.00 1027.23 1027.42 1027.55 1027.58 1027.51 1027.31 1027.00 1026.58 1026.08 1025.52 1024.93 1024.32 1023.71 1023.11 1022.52 1021.92 1021.31 1020.68 1020.03 1019.35 1018.65 1017.95 1017.25 1016.58 1015.96 1015.38 1014.85 1014.36
1021.43 1022.18 1022.89 1023.53 1024.08 1024.52 1024.87 1025.12 1025.32 1025.48 1025.63 1025.79 1025.98 1026.18 1026.40 1026.62 1026.80 1026.92 1026.96 1026.89 1026.72 1026.44 1026.06 1025.61 1025.09 1024.54 1023.96 1023.38 1022.79 1022.20 1021.58 1020.95 1020.28 1019.57 1018.83 1018.06 1017.29 1016.52 1015.79 1015.11 1014.49 1013.93 1013.42
1020.42 1021.22 1021.97 1022.65 1023.25 1023.75 1024.14 1024.46 1024.70 1024.91 1025.09 1025.27 1025.47 1025.67 1025.87 1026.05 1026.21 1026.30 1026.32 1026.25 1026.09 1025.83 1025.49 1025.08 1024.62 1024.12 1023.60 1023.06 1022.50 1021.92 1021.30 1020.64 1019.94 1019.19 1018.39 1017.56 1016.71 1015.88 1015.08 1014.33 1013.65 1013.03 1012.48
1019.50 1020.31 1021.08 1021.80 1022.43 1022.97 1023.42 1023.79 1024.09 1024.35 1024.58 1024.79 1024.99 1025.19 1025.37 1025.52 1025.64 1025.69 1025.68 1025.60 1025.43 1025.19 1024.89 1024.53 1024.12 1023.69 1023.23 1022.74 1022.22 1021.67 1021.06 1020.40 1019.68 1018.88 1018.04 1017.15 1016.25 1015.35 1014.48 1013.66 1012.90 1012.21 1011.58
1018.72 1019.52 1020.28 1020.99 1021.63 1022.19 1022.68 1023.10 1023.46 1023.77 1024.04 1024.28 1024.50 1024.69 1024.85 1024.97 1025.05 1025.06 1025.02 1024.91 1024.74 1024.52 1024.25 1023.95 1023.61 1023.24 1022.84 1022.42 1021.95 1021.43 1020.85 1020.19 1019.46 1018.64 1017.76 1016.84 1015.88 1014.92 1013.99 1013.10 1012.27 1011.50 1010.78
1018.15 1018.88 1019.59 1020.26 1020.87 1021.43 1021.93 1022.37 1022.76 1023.11 1023.42 1023.69 1023.92 1024.11 1024.25 1024.35 1024.39 1024.38 1024.31 1024.19 1024.03 1023.82 1023.59 1023.34 1023.06 1022.76 1022.44 1022.08 1021.66 1021.18 1020.62 1019.98 1019.24 1018.42 1017.52 1016.57 1015.59 1014.59 1013.61 1012.66 1011.76 1010.91 1010.10
1017.76 1018.40 1019.02 1019.61 1020.16 1020.68 1021.15 1021.59 1021.99 1022.35 1022.68 1022.96 1023.21 1023.40 1023.54 1023.62 1023.65 1023.62 1023.54 1023.42 1023.27 1023.10 1022.91 1022.71 1022.49 1022.26 1021.99 1021.68 1021.32 1020.87 1020.34 1019.71 1018.98 1018.16 1017.26 1016.30 1015.31 1014.30 1013.29 1012.31 1011.36 1010.44 1009.55
1017.53 1018.05 1018.55 1019.04 1019.50 1019.94 1020.36 1020.76 1021.14 1021.49 1021.82 1022.11 1022.36 1022.55 1022.69 1022.77 1022.80 1022.77 1022.70 1022.60 1022.48 1022.35 1022.21 1022.06 1021.90 1021.72 1021.50 1021.23 1020.90 1020.48 1019.96 1019.34 1018.62 1017.81 1016.92 1015.98 1015.00 1014.00 1012.99 1012.00 1011.03 1010.07 1009.12
Thickness
5604 5606 5607 5608 5610 5612 5613 5614 5616 5617 5618 5619 5621 5622 5624 5626 5628 5629 5630 5630 5632 5633 5635 5637 5638 5639 5641 5641 5642 5643 5643 5644 5644 5644 5645 5646 5647 5648 5648 5649 5649 5649 5650
5595 5597 5598 5599 5601 5602 5604 5605 5607 5608 5609 5611 5612 5614 5616 5618 5620 5621 5623 5623 5624 5626 5628 5629 5631 5632 5634 5635 5636 5637 5637 5638 5638 5639 5639 5640 5641 5642 5643 5643 5644 5644 5645
5585 5587 5589 5590 5591 5592 5594 5596 5598 5600 5601 5602 5604 5606 5607 5609 5611 5613 5614 5616 5617 5618 5619 5621 5623 5624 5626 5628 5629 5630 5631 5631 5632 5633 5633 5634 5635 5636 5637 5637 5638 5638 5639
5575 5576 5578 5580 5581 5582 5584 5586 5588 5591 5592 5593 5595 5597 5599 5600 5603 5604 5606 5607 5609 5610 5612 5613 5614 5616 5618 5620 5622 5623 5624 5624 5626 5626 5627 5628 5629 5630 5630 5631 5632 5632 5633
5564 5566 5568 5569 5571 5572 5574 5576 5578 5580 5582 5583 5585 5587 5589 5591 5593 5595 5597 5599 5600 5602 5604 5605 5606 5608 5609 5611 5613 5615 5616 5617 5618 5619 5620 5621 5622 5623 5624 5625 5626 5626 5627
5554 5555 5557 5559 5560 5562 5563 5565 5567 5569 5570 5572 5575 5577 5580 5582 5584 5586 5588 5590 5591 5593 5595 5597 5598 5599 5601 5603 5605 5606 5608 5609 5610 5612 5613 5614 5615 5617 5618 5619 5620 5620 5621
5542 5543 5546 5548 5549 5551 5553 5554 5556 5558 5560 5561 5565 5568 5571 5573 5575 5576 5578 5580 5582 5584 5585 5587 5589 5590 5592 5594 5596 5597 5599 5601 5602 5604 5605 5607 5608 5610 5611 5613 5613 5614 5615
5531 5532 5534 5537 5538 5539 5541 5542 5543 5546 5548 5549 5553 5557 5563 5566 5566 5566 5567 5569 5572 5574 5576 5577 5579 5581 5583 5585 5587 5588 5590 5592 5594 5596 5597 5599 5601 5602 5604 5605 5606 5607 5608
5519 5520 5522 5524 5525 5527 5529 5531 5531 5533 5536 5537 5538 5543 5549 5556 5555 5557 5557 5559 5561 5563 5565 5567 5569 5571 5573 5575 5577 5579 5581 5582 5584 5587 5589 5590 5592 5594 5596 5597 5599 5600 5601
5506 5508 5509 5511 5512 5515 5517 5519 5519 5521 5523 5525 5526 5528 5532 5536 5539 5546 5548 5549 5549 5552 5554 5556 5558 5560 5562 5564 5566 5569 5571 5573 5575 5577 5579 5581 5583 5585 5587 5589 5591 5592 5594
5494 5495 5497 5498 5500 5502 5504 5506 5507 5508 5511 5513 5515 5516 5517 5520 5524 5528 5535 5538 5539 5541 5543 5545 5547 5550 5552 5554 5556 5558 5560 5562 5564 5567 5569 5572 5574 5576 5578 5580 5582 5584 5585
5482 5483 5484 5485 5487 5489 5491 5493 5494 5495 5498 5500 5502 5503 5506 5509 5513 5515 5520 5524 5527 5530 5531 5534 5536 5539 5540 5542 5544 5546 5548 5551 5553 5556 5559 5561 5564 5566 5568 5570 5572 5574 5576
5471 5472 5473 5473 5475 5476 5478 5479 5482 5483 5485 5487 5489 5491 5493 5496 5498 5501 5504 5508 5512 5517 5519 5522 5524 5527 5528 5530 5532 5534 5536 5539 5542 5544 5547 5550 5553 5555 5557 5559 5562 5564 5566
5460 5460 5461 5462 5463 5464 5466 5467 5469 5470 5472 5475 5477 5478 5480 5483 5485 5488 5490 5492 5497 5504 5508 5512 5513 5514 5515 5517 5519 5520 5524 5526 5529 5532 5535 5538 5540 5543 5545 5548 5550 5552 5554
5448 5448 5449 5450 5451 5453 5454 5455 5457 5459 5460 5463 5466 5467 5469 5471 5472 5475 5477 5479 5481 5489 5498 5501 5500 5502 5502 5504 5506 5507 5510 5514 5516 5519 5523 5525 5528 5531 5533 5535 5538 5540 5543
5437 5437 5438 5439 5440 5441 5442 5443 5446 5447 5449 5452 5454 5456 5458 5459 5460 5462 5464 5466 5468 5473 5481 5488 5487 5487 5487 5490 5492 5493 5497 5500 5504 5506 5510 5512 5515 5518 5521 5523 5525 5528 5530
5426 5427 5427 5428 5429 5429 5430 5432 5435 5436 5437 5439 5441 5444 5446 5446 5448 5450 5451 5453 5456 5459 5464 5471 5471 5472 5473 5475 5477 5480 5483 5486 5491 5493 5496 5499 5502 5505 5507 5510 5512 5515 5517
5416 5415 5416 5416 5417 5418 5419 5421 5424 5425 5426 5428 5430 5432 5434 5435 5436 5437 5439 5441 5444 5446 5450 5455 5457 5457 5459 5461 5464 5466 5468 5472 5476 5480 5482 5485 5489 5491 5494 5496 5499 5501 5504
5405 5404 5405 5406 5406 5407 5409 5411 5413 5414 5415 5417 5418 5419 5421 5422 5424 5425 5426 5428 5430 5432 5435 5438 5443 5444 5444 5446 5448 5451 5454 5457 5461 5465 5468 5472 5475 5478 5481 5483 5486 5488 5491
5393 5394 5394 5395 5396 5397 5398 5400 5400 5402 5403 5405 5406 5407 5409 5410 5411 5412 5413 5415 5416 5417 5420 5423 5427 5429 5430 5432 5433 5437 5441 5444 5448 5450 5454 5458 5462 5464 5468 5471 5474 5476 5478
5381 5383 5383 5383 5385 5386 5387 5388 5388 5390 5392 5393 5394 5395 5396 5397 5397 5398 5400 5401 5402 5404 5406 5409 5412 5415 5417 5418 5419 5422 5426 5431 5434 5436 5441 5445 5449 5452 5454 5457 5460 5463 5465
5369 5370 5371 5372 5374 5375 5375 5375 5376 5378 5380 5381 5382 5383 5383 5384 5385 5385 5386 5387 5388 5390 5393 5394 5398 5401 5404 5404 5405 5407 5411 5415 5421 5425 5426 5431 5433 5439 5442 5445 5448 5450 5452
5358 5358 5359 5360 5362 5363 5362 5362 5363 5365 5367 5368 5369 5370 5370 5372 5372 5372 5373 5373 5374 5375 5376 5379 5383 5387 5389 5390 5391 5394 5397 5400 5405 5408 5408 5416 5420 5425 5429 5432 5434 5437 5439
5345 5346 5347 5347 5348 5350 5349 5349 5350 5352 5354 5355 5355 5356 5357 5359 5359 5359 5360 5361 5363 5364 5364 5365 5369 5374 5374 5374 5376 5379 5381 5384 5389 5392 5393 5400 5407 5410 5415 5419 5421 5423 5425
5333 5334 5334 5335 5336 5337 5336 5335 5336 5338 5341 5342 5342 5344 5345 5346 5347 5346 5347 5349 5351 5352 5351 5352 5354 5357 5360 5361 5362 5363 5366 5370 5377 5381 5381 5385 5391 5395 5401 5406 5408 5409 5411
5320 5321 5321 5322 5322 5324 5323 5323 5323 5325 5327 5329 5330 5332 5333 5334 5333 5332 5333 5335 5337 5340 5340 5341 5342 5345 5346 5349 5349 5350 5353 5357 5363 5367 5370 5370 5375 5377 5384 5392 5394 5395 5397